STARLINK-3060, 49155

Orbit data source: Space-Track

STARLINK-3060, 49155 is a payload satellite owned by SpaceX/Seattle (US) in LEO that was launched on Tue, 14 Sep 2021 UTC via an FALCON 9 launch vehicle from the Air Force Western Test Range (AFWTR). Payload-class satellites include a variety of spacecraft equipped with specific instruments for various scientific and technological missions. These include communications satellites like Starlink; space stations such as the ISS; scientific satellites like the Hubble; Earth observation satellites from companies like Planet Labs, Umbra, and HawkEye 360; GPS; miniature CubeSats for education and research; and military/defense satellites.

Loading next visibility...
Identifier
49155, 2021-082AB
Orbit
LEO
Last TLE update
20 hours ago
Origin
Manufacturer
SpaceX/Seattle
Mission
Operational Commercial Communications
Bus & Motor
STARLINK, Unknown motor
Mass
297 kg wet, ~275 kg dry
Launch date (UTC)
2021-09-14 (4 years ago)
Launch vehicle
FALCON 9
Launch site
Air Force Western Test Range (AFWTR)
Object type
Payload
Rocket body
Debris
Shape & HBR
Box + 1 Pan, 8.86 m
Radar Cross Section
13.562 m², Large (>1 m²)

Expand to show TLE details & history

TLE from 20 hours ago
0 STARLINK-3060
1 49155U 21082AB  25182.41227648  .00000016  00000-0  91409-5 0  9994
2 49155  69.9994 168.0047 0003486 267.8915  92.1845 14.98330802210401
Epoch: 2025-07-01T09:53Z
TLE epoch observation values (Epoch: 2025-07-01T09:53:40.687Z)
Latitude
-0.00003°
Longitude
99.87706°
Altitude
574.57 km
Speed
7.574 km/s
True Right ascension
11h 12m 01s
True Declination
0° 00' 00"
Sunlit
Object was in daylight at epoch
Visualization orbit readout
Latitude
-21.68372°
Longitude
-73.96108°
Altitude
578.624 km
Speed
7.571 km/s
Apparent Right ascension
02h 07m 34s
Apparent Declination
-39° 37' 41"
Sunlit
Object is in daylight
Visualization observer readout
Local Sidereal Time
17:43:07
Azimuth
107.644° ESE
Elevation
-49.237°
Doppler factor
1
Orbital elements
Apogee altitude
572.424 km
Perigee altitude
567.58 km
Semi-major axis
6,948.139 km
Eccentricity
0.00035
Inclination
69.9994°
RAAN
168.0047°
Arg. of periapsis
267.8915°
True anomaly
Unknown
Mean anomaly
92.1845°
Eccentric anomaly
Unknown
Mean motion
3.74749 °/min
Orbital period
96.06 mins
BSTAR
0.0000091409
Loading maneuver chart data...
Loading SW <> Apogee altitude chart data...
Loading historical data...
Loading historical data...
Loading historical data...
Loading historical data...
Loading historical data...
Loading historical data...
Loading historical data...

STARLINK-3060 Visibility forecast

Observer location: undefined°, undefined°

Span
Click to sort rows by Start time (UTC) header in descending order
Start Az.
Max El. time (UTC)
Max El. Az.
Max El.
End time (UTC)
End Az.
4 mins2025-07-02 08:52:27.920Z25.703° NE2025-07-02 08:54:27.920Z58.459° ENE15.319°2025-07-02 08:56:27.920Z88.463° E
6 mins2025-07-02 10:30:27.920Z312.836° NW2025-07-02 10:32:27.920Z262.182° W36.011°2025-07-02 10:36:27.920Z177.381° S
7 mins2025-07-03 00:29:27.920Z214.042° SW2025-07-03 00:32:27.920Z280.369° WNW42.824°2025-07-03 00:36:27.920Z18.956° NNE
|